,,Stat6,,Stat2,,Stat8,,Stat9,,Stat10,,Wind1,,Wind1,
time,status,PA1M_AVG,status,PR1M_SUM,status,RH1M_AVG,status,SR1M_AVG,status,TA1M_AVG,status,W1dAve1m,status,W1sAve1m,
2007-03-26, 00:00:00,VALID,917.98,VALID,0,VALID,99.2958,VALID,-0.0339617,VALID,19.6933,VALID,8,VALID,0,
2007-03-26, 00:01:00,VALID,917.965,VALID,0,VALID,99.5043,VALID,-0.0339617,VALID,19.6903,VALID,8,VALID,0,
2007-03-26, 00:02:00,VALID,917.936,VALID,0,VALID,99.6531,VALID,-0.0509425,VALID,19.7003,VALID,8,VALID,0.0356571,
2007-03-26, 00:03:00,VALID,917.928,VALID,0,VALID,99.7332,VALID,-0.0509425,VALID,19.6968,VALID,8,VALID,0,
2007-03-26, 00:04:00,VALID,917.931,VALID,0,VALID,99.6493,VALID,-0.0849042,VALID,19.6711,VALID,8,VALID,0.149771,
2007-03-26, 00:05:00,VALID,917.921,VALID,0,VALID,99.7599,VALID,-0.0339617,VALID,19.6706,VALID,8,VALID,0.471037,
2007-03-26, 00:06:00,VALID,917.916,VALID,0,VALID,99.7612,VALID,-0.0169808,VALID,19.6481,VALID,10,VALID,0.528201,
2007-03-26, 00:07:00,VALID,917.903,VALID,0,VALID,99.9418,VALID,-0.0509425,VALID,19.6514,VALID,22,VALID,0.118712,
2007-03-26, 00:08:00,VALID,917.918,VALID,0,VALID,99.9443,VALID,-0.0849042,VALID,19.6451,VALID,22,VALID,0.0012718,
2007-03-26, 00:09:00,VALID,917.928,VALID,0,VALID,99.9952,VALID,-0.0509425,VALID,19.6424,VALID,22,VALID,0.000710227,
2007-03-26, 00:10:00,VALID,917.937,VALID,0,VALID,100,VALID,-0.101885,VALID,19.6586,VALID,22,VALID,0.0154433,
2007-03-26, 00:11:00,VALID,917.939,VALID,0,VALID,99.999,VALID,-0.0509425,VALID,19.6189,VALID,22,VALID,0.15483,
2007-03-26, 00:12:00,VALID,917.929,VALID,0,VALID,100,VALID,-0.0679233,VALID,19.6065,VALID,22,VALID,0.117898,
2007-03-26, 00:13:00,VALID,917.911,VALID,0,VALID,99.9926,VALID,0,VALID,19.5827,VALID,22,VALID,0,
2007-03-26, 00:14:00,VALID,917.881,VALID,0,VALID,99.6493,VALID,-0.0849042,VALID,19.4864,VALID,22,VALID,0.00109012,
2007-03-26, 00:15:00,VALID,917.846,VALID,0,VALID,99.4001,VALID,-0.0339617,VALID,19.3691,VALID,22,VALID,0.0137649,
2007-03-26, 00:16:00,VALID,917.826,VALID,0,VALID,99.4344,VALID,-0.0509425,VALID,19.3237,VALID,22,VALID,0.218559,
2007-03-26, 00:17:00,VALID,917.798,VALID,0,VALID,99.5704,VALID,-0.0849042,VALID,19.2912,VALID,22,VALID,0.000887784,
2007-03-26, 00:18:00,VALID,917.804,VALID,0,VALID,99.9184,VALID,-0.0339617,VALID,19.3072,VALID,22,VALID,0.0278201,
2007-03-26, 00:19:00,VALID,917.799,VALID,0,VALID,100,VALID,-0.0509425,VALID,19.3299,VALID,22,VALID,0.0125363,
2007-03-26, 00:20:00,VALID,917.797,VALID,0,VALID,100,VALID,-0.0509425,VALID,19.3696,VALID,22,VALID,0.251953,
2007-03-26, 00:21:00,VALID,917.807,VALID,0,VALID,100,VALID,-0.0679233,VALID,19.4018,VALID,22,VALID,0,
2007-03-26, 00:22:00,VALID,917.807,VALID,0,VALID,100,VALID,-0.0679233,VALID,19.4013,VALID,22,VALID,0,
2007-03-26, 00:23:00,VALID,917.82,VALID,0,VALID,100,VALID,0,VALID,19.3784,VALID,22,VALID,0,
2007-03-26, 00:24:00,VALID,917.826,VALID,0,VALID,100,VALID,-0.0169808,VALID,19.3883,VALID,22,VALID,0,
2007-03-26, 00:25:00,VALID,917.842,VALID,0,VALID,99.9901,VALID,0,VALID,19.3719,VALID,22,VALID,0.228277,
2007-03-26, 00:26:00,VALID,917.864,VALID,0,VALID,99.133,VALID,-0.0339617,VALID,19.1835,VALID,22,VALID,0.519792,
2007-03-26, 00:27:00,VALID,917.889,VALID,0,VALID,99.3161,VALID,-0.0509425,VALID,19.1063,VALID,22,VALID,0.114955,
2007-03-26, 00:28:00,VALID,917.879,VALID,0,VALID,99.8408,VALID,-0.0509425,VALID,19.1323,VALID,22,VALID,0,
2007-03-26, 00:29:00,VALID,917.865,VALID,0,VALID,100,VALID,-0.0509425,VALID,19.1902,VALID,36,VALID,0.347656,
2007-03-26, 00:30:00,VALID,917.875,VALID,0,VALID,100,VALID,-0.0339617,VALID,19.1707,VALID,41,VALID,0.541101,
2007-03-26, 00:31:00,VALID,917.871,VALID,0,VALID,100,VALID,-0.0679233,VALID,19.2556,VALID,50,VALID,0.595385,
2007-03-26, 00:32:00,VALID,917.876,VALID,0,VALID,100,VALID,-0.0169808,VALID,19.3297,VALID,57,VALID,0.437309,
2007-03-26, 00:33:00,VALID,917.885,VALID,0,VALID,100,VALID,-0.0169808,VALID,19.3204,VALID,57,VALID,0.234012,
2007-03-26, 00:34:00,VALID,917.886,VALID,0,VALID,100,VALID,-0.0509425,VALID,19.3077,VALID,57,VALID,0,
2007-03-26, 00:35:00,VALID,917.905,VALID,0,VALID,100,VALID,-0.0849042,VALID,19.3367,VALID,57,VALID,0,
2007-03-26, 00:36:00,VALID,917.918,VALID,0,VALID,100,VALID,-0.0169808,VALID,19.3788,VALID,57,VALID,0,
2007-03-26, 00:37:00,VALID,917.929,VALID,0,VALID,100,VALID,-0.0169808,VALID,19.4108,VALID,57,VALID,0,
2007-03-26, 00:38:00,VALID,917.929,VALID,0,VALID,100,VALID,0.0169808,VALID,19.459,VALID,57,VALID,0.159801,
2007-03-26, 00:39:00,VALID,917.921,VALID,0,VALID,100,VALID,-0.0169808,VALID,19.5181,VALID,57,VALID,0.258903,
2007-03-26, 00:40:00,VALID,917.934,VALID,0,VALID,100,VALID,-0.0339617,VALID,19.5211,VALID,88,VALID,0.184961,
2007-03-26, 00:41:00,VALID,917.927,VALID,0,VALID,100,VALID,-0.0509425,VALID,19.5021,VALID,89,VALID,0.118641,
2007-03-26, 00:42:00,VALID,917.923,VALID,0,VALID,100,VALID,0,VALID,19.5051,VALID,89,VALID,0.38205,
2007-03-26, 00:43:00,VALID,917.901,VALID,0,VALID,100,VALID,-0.0169808,VALID,19.5211,VALID,138,VALID,0.578887,
2007-03-26, 00:44:00,VALID,917.889,VALID,0,VALID,100,VALID,0,VALID,19.5501,VALID,162,VALID,0.49721,
2007-03-26, 00:45:00,VALID,917.908,VALID,0,VALID,100,VALID,-0.0169808,VALID,19.5535,VALID,162,VALID,0,
2007-03-26, 00:46:00,VALID,917.898,VALID,0,VALID,100,VALID,-0.0339617,VALID,19.4852,VALID,162,VALID,0,
2007-03-26, 00:47:00,VALID,917.88,VALID,0,VALID,100,VALID,-0.0509425,VALID,19.5016,VALID,162,VALID,0.077567,
2007-03-26, 00:48:00,VALID,917.861,VALID,0,VALID,100,VALID,-0.0339617,VALID,19.5573,VALID,162,VALID,0,
2007-03-26, 00:49:00,VALID,917.839,VALID,0,VALID,100,VALID,-0.0169808,VALID,19.6441,VALID,162,VALID,0,
2007-03-26, 00:50:00,VALID,917.833,VALID,0,VALID,100,VALID,-0.0509425,VALID,19.6968,VALID,162,VALID,0,
2007-03-26, 00:51:00,VALID,917.835,VALID,0,VALID,100,VALID,0,VALID,19.6961,VALID,162,VALID,0,
2007-03-26, 00:52:00,VALID,917.83,VALID,0,VALID,100,VALID,0,VALID,19.6863,VALID,162,VALID,0,
2007-03-26, 00:53:00,VALID,917.824,VALID,0,VALID,100,VALID,-0.0169808,VALID,19.6931,VALID,162,VALID,0,
2007-03-26, 00:54:00,VALID,917.814,VALID,0,VALID,100,VALID,-0.0339617,VALID,19.7033,VALID,162,VALID,0.146391,
2007-03-26, 00:55:00,VALID,917.797,VALID,0,VALID,100,VALID,-0.0339617,VALID,19.6903,VALID,162,VALID,0.18564,
2007-03-26, 00:56:00,VALID,917.803,VALID,0,VALID,100,VALID,-0.0339617,VALID,19.6768,VALID,162,VALID,0,
2007-03-26, 00:57:00,VALID,917.793,VALID,0,VALID,100,VALID,-0.0679233,VALID,19.6706,VALID,162,VALID,0.00724085,
2007-03-26, 00:58:00,VALID,917.783,VALID,0,VALID,100,VALID,-0.0509425,VALID,19.6838,VALID,162,VALID,0.237464,
2007-03-26, 00:59:00,VALID,917.774,VALID,0,VALID,100,VALID,-0.101885,VALID,19.6676,VALID,162,VALID,0.228423,
2007-03-26, 01:00:00,VALID,917.767,VALID,0,VALID,99.8884,VALID,0,VALID,19.6441,VALID,162,VALID,0.0961538,
2007-03-26, 01:01:00,VALID,917.756,VALID,0,VALID,99.9725,VALID,-0.0509425,VALID,19.6511,VALID,162,VALID,0.395167,
2007-03-26, 01:02:00,VALID,917.738,VALID,0,VALID,99.7141,VALID,-0.0509425,VALID,19.6324,VALID,162,VALID,0.0581395,
2007-03-26, 01:03:00,VALID,917.734,VALID,0,VALID,99.8044,VALID,-0.0339617,VALID,19.6159,VALID,162,VALID,0.411585,
2007-03-26, 01:04:00,VALID,917.734,VALID,0,VALID,99.9138,VALID,-0.0339617,VALID,19.6419,VALID,162,VALID,0.271354,
2007-03-26, 01:05:00,VALID,917.709,VALID,0,VALID,99.9888,VALID,-0.0509425,VALID,19.6511,VALID,158,VALID,0.514382,
2007-03-26, 01:06:00,VALID,917.687,VALID,0,VALID,100,VALID,-0.0339617,VALID,19.7093,VALID,158,VALID,0.479226,
2007-03-26, 01:07:00,VALID,917.661,VALID,0,VALID,100,VALID,-0.0169808,VALID,19.7253,VALID,150,VALID,0.508929,
2007-03-26, 01:08:00,VALID,917.657,VALID,0,VALID,100,VALID,-0.0679233,VALID,19.729,VALID,143,VALID,0.534412,
2007-03-26, 01:09:00,VALID,917.638,VALID,0,VALID,100,VALID,-0.0339617,VALID,19.7325,VALID,143,VALID,0.333841,
2007-03-26, 01:10:00,VALID,917.638,VALID,0,VALID,100,VALID,-0.0849042,VALID,19.7198,VALID,143,VALID,0.116992,
2007-03-26, 01:11:00,VALID,917.646,VALID,0,VALID,100,VALID,-0.0339617,VALID,19.7647,VALID,143,VALID,0.0424107,
2007-03-26, 01:12:00,VALID,917.65,VALID,0,VALID,100,VALID,-0.0169808,VALID,19.7904,VALID,143,VALID,0.0952035,
2007-03-26, 01:13:00,VALID,917.654,VALID,0,VALID,100,VALID,-0.0339617,VALID,19.7912,VALID,143,VALID,0.228659,
2007-03-26, 01:14:00,VALID,917.662,VALID,0,VALID,100,VALID,-0.0509425,VALID,19.7874,VALID,143,VALID,0,
2007-03-26, 01:15:00,VALID,917.651,VALID,0,VALID,100,VALID,-0.0679233,VALID,19.8009,VALID,143,VALID,0.12843,
2007-03-26, 01:16:00,VALID,917.658,VALID,0,VALID,100,VALID,-0.0509425,VALID,19.7844,VALID,144,VALID,0.460227,
2007-03-26, 01:17:00,VALID,917.648,VALID,0,VALID,100,VALID,-0.0339617,VALID,19.7679,VALID,144,VALID,0.544876,
2007-03-26, 01:18:00,VALID,917.648,VALID,0,VALID,99.9896,VALID,-0.0509425,VALID,19.7647,VALID,144,VALID,0.0832741,
2007-03-26, 01:19:00,VALID,917.626,VALID,0,VALID,100,VALID,-0.0339617,VALID,19.7872,VALID,144,VALID,0,
2007-03-26, 01:20:00,VALID,917.62,VALID,0,VALID,100,VALID,-0.0169808,VALID,19.8623,VALID,144,VALID,0,
2007-03-26, 01:21:00,VALID,917.608,VALID,0,VALID,100,VALID,-0.0679233,VALID,19.9072,VALID,144,VALID,0,
2007-03-26, 01:22:00,VALID,917.592,VALID,0,VALID,100,VALID,-0.0339617,VALID,19.9526,VALID,144,VALID,0.0325521,
2007-03-26, 01:23:00,VALID,917.58,VALID,0,VALID,100,VALID,0,VALID,19.9434,VALID,144,VALID,0,
2007-03-26, 01:24:00,VALID,917.581,VALID,0,VALID,99.9227,VALID,-0.0849042,VALID,19.9137,VALID,144,VALID,0.144804,
2007-03-26, 01:25:00,VALID,917.559,VALID,0,VALID,100,VALID,-0.0169808,VALID,19.9369,VALID,144,VALID,0.0681046,
2007-03-26, 01:26:00,VALID,917.564,VALID,0,VALID,99.9929,VALID,-0.0169808,VALID,19.9589,VALID,144,VALID,0,
2007-03-26, 01:27:00,VALID,917.547,VALID,0,VALID,99.8197,VALID,-0.0169808,VALID,19.9824,VALID,144,VALID,0.115552,
2007-03-26, 01:28:00,VALID,917.531,VALID,0,VALID,99.6035,VALID,-0.0679233,VALID,19.9759,VALID,144,VALID,0.316692,
2007-03-26, 01:29:00,VALID,917.505,VALID,0,VALID,99.5501,VALID,-0.0849042,VALID,19.9659,VALID,144,VALID,0.125191,
2007-03-26, 01:30:00,VALID,917.481,VALID,0,VALID,99.2538,VALID,-0.0339617,VALID,19.9537,VALID,144,VALID,0.228871,
2007-03-26, 01:31:00,VALID,917.46,VALID,0,VALID,98.7477,VALID,-0.0169808,VALID,19.878,VALID,144,VALID,0.139062,
2007-03-26, 01:32:00,VALID,917.464,VALID,0,VALID,98.894,VALID,-0.0169808,VALID,19.8815,VALID,144,VALID,0,
2007-03-26, 01:33:00,VALID,917.471,VALID,0,VALID,99.1572,VALID,-0.0169808,VALID,19.9072,VALID,144,VALID,0,
2007-03-26, 01:34:00,VALID,917.484,VALID,0,VALID,99.0644,VALID,-0.0339617,VALID,19.9007,VALID,144,VALID,0,
2007-03-26, 01:35:00,VALID,917.488,VALID,0,VALID,98.8533,VALID,-0.0849042,VALID,19.9212,VALID,144,VALID,0,
2007-03-26, 01:36:00,VALID,917.47,VALID,0,VALID,98.9143,VALID,-0.0169808,VALID,19.9107,VALID,144,VALID,0,
2007-03-26, 01:37:00,VALID,917.464,VALID,0,VALID,98.8088,VALID,-0.0339617,VALID,19.908,VALID,144,VALID,0,
2007-03-26, 01:38:00,VALID,917.469,VALID,0,VALID,98.482,VALID,-0.0679233,VALID,19.8945,VALID,144,VALID,0.106898,
2007-03-26, 01:39:00,VALID,917.471,VALID,0,VALID,98.2467,VALID,-0.0509425,VALID,19.8975,VALID,144,VALID,0.00550426,
2007-03-26, 01:40:00,VALID,917.465,VALID,0,VALID,97.9504,VALID,-0.0679233,VALID,19.9207,VALID,144,VALID,0.0010016,
2007-03-26, 01:41:00,VALID,917.455,VALID,0,VALID,97.6351,VALID,0,VALID,19.9302,VALID,103,VALID,0.170573,
2007-03-26, 01:42:00,VALID,917.428,VALID,0,VALID,97.2994,VALID,-0.0169808,VALID,19.9234,VALID,20,VALID,0.170277,
2007-03-26, 01:43:00,VALID,917.388,VALID,0,VALID,96.4792,VALID,-0.0169808,VALID,19.9175,VALID,340,VALID,0.469965,
2007-03-26, 01:44:00,VALID,917.36,VALID,0,VALID,96.015,VALID,-0.0339617,VALID,19.9494,VALID,293,VALID,0.329823,
2007-03-26, 01:45:00,VALID,917.332,VALID,0,VALID,95.5293,VALID,-0.0509425,VALID,19.9883,VALID,294,VALID,0.0784884,
2007-03-26, 01:46:00,VALID,917.304,VALID,0,VALID,93.9703,VALID,-0.0679233,VALID,19.9726,VALID,297,VALID,0.638494,
2007-03-26, 01:47:00,VALID,917.288,VALID,0,VALID,93.5876,VALID,-0.0679233,VALID,20.028,VALID,340,VALID,0.663662,
2007-03-26, 01:48:00,VALID,917.27,VALID,0,VALID,93.5227,VALID,-0.0509425,VALID,20.0602,VALID,25,VALID,1.14958,
2007-03-26, 01:49:00,VALID,917.263,VALID,0,VALID,93.496,VALID,-0.0849042,VALID,20.0215,VALID,25,VALID,1.21795,
2007-03-26, 01:50:00,VALID,917.235,VALID,0,VALID,93.5138,VALID,-0.0679233,VALID,19.9926,VALID,32,VALID,1.10435,
2007-03-26, 01:51:00,VALID,917.22,VALID,0,VALID,93.7312,VALID,-0.0509425,VALID,19.9794,VALID,23,VALID,0.337271,
2007-03-26, 01:52:00,VALID,917.213,VALID,0,VALID,93.791,VALID,-0.0679233,VALID,19.9559,VALID,23,VALID,0.00234375,
2007-03-26, 01:53:00,VALID,917.184,VALID,0,VALID,93.894,VALID,-0.0339617,VALID,19.9559,VALID,23,VALID,0,
2007-03-26, 01:54:00,VALID,917.143,VALID,0,VALID,94.1216,VALID,-0.0679233,VALID,19.9729,VALID,23,VALID,0.205915,
2007-03-26, 01:55:00,VALID,917.111,VALID,0,VALID,94.1,VALID,-0.101885,VALID,19.9599,VALID,23,VALID,0.427202,
2007-03-26, 01:56:00,VALID,917.07,VALID,0,VALID,94.2361,VALID,-0.101885,VALID,19.9402,VALID,23,VALID,0.373884,
2007-03-26, 01:57:00,VALID,917.044,VALID,0,VALID,94.3848,VALID,-0.0679233,VALID,19.9107,VALID,23,VALID,0.668255,
2007-03-26, 01:58:00,VALID,917.031,VALID,0,VALID,94.5858,VALID,-0.0169808,VALID,19.8129,VALID,23,VALID,0.893601,
2007-03-26, 01:59:00,VALID,917,VALID,0,VALID,94.8909,VALID,0.0169808,VALID,19.7115,VALID,23,VALID,0.852471,
2007-03-26, 02:00:00,VALID,916.975,VALID,0,VALID,95.3004,VALID,0.0679233,VALID,19.6559,VALID,24,VALID,0.707304,
2007-03-26, 02:01:00,VALID,916.954,VALID,0,VALID,95.7684,VALID,0.0339617,VALID,19.611,VALID,24,VALID,0.698331,
2007-03-26, 02:02:00,VALID,916.925,VALID,0,VALID,96.2477,VALID,0.0679233,VALID,19.598,VALID,39,VALID,0.638849,
2007-03-26, 02:03:00,VALID,916.9,VALID,0,VALID,96.5339,VALID,0.0849042,VALID,19.6334,VALID,39,VALID,0.379464,
2007-03-26, 02:04:00,VALID,916.868,VALID,0,VALID,96.4181,VALID,0,VALID,19.6399,VALID,39,VALID,0.181641,
2007-03-26, 02:05:00,VALID,916.849,VALID,0,VALID,96.0303,VALID,0.0339617,VALID,19.6072,VALID,39,VALID,0.490278,
2007-03-26, 02:06:00,VALID,916.832,VALID,0,VALID,95.9222,VALID,0.0679233,VALID,19.5945,VALID,39,VALID,0.487165,
2007-03-26, 02:07:00,VALID,916.833,VALID,0,VALID,95.8396,VALID,0.101885,VALID,19.5783,VALID,39,VALID,0.303416,
2007-03-26, 02:08:00,VALID,916.841,VALID,0,VALID,95.9947,VALID,0.0679233,VALID,19.5755,VALID,39,VALID,0.301448,
2007-03-26, 02:09:00,VALID,916.826,VALID,0,VALID,96.1918,VALID,0,VALID,19.572,VALID,39,VALID,0.147529,
2007-03-26, 02:10:00,VALID,916.796,VALID,0,VALID,96.0875,VALID,0.0509425,VALID,19.5491,VALID,39,VALID,0,
2007-03-26, 02:11:00,VALID,916.777,VALID,0,VALID,96.3012,VALID,0.0679233,VALID,19.5264,VALID,39,VALID,0.122997,
2007-03-26, 02:12:00,VALID,916.741,VALID,0,VALID,96.6814,VALID,0.0679233,VALID,19.5324,VALID,39,VALID,0.235283,
2007-03-26, 02:13:00,VALID,916.72,VALID,0,VALID,96.778,VALID,0.0169808,VALID,19.5496,VALID,39,VALID,0.0735829,
2007-03-26, 02:14:00,VALID,916.682,VALID,0,VALID,96.6458,VALID,-0.0339617,VALID,19.5176,VALID,39,VALID,0,
2007-03-26, 02:15:00,VALID,916.632,VALID,0,VALID,96.8378,VALID,-0.0169808,VALID,19.4787,VALID,39,VALID,0.133176,
2007-03-26, 02:16:00,VALID,916.615,VALID,0,VALID,97.1798,VALID,-0.0169808,VALID,19.4922,VALID,39,VALID,0.202035,
2007-03-26, 02:17:00,VALID,916.599,VALID,0,VALID,97.012,VALID,-0.0339617,VALID,19.4824,VALID,39,VALID,0.00558036,
2007-03-26, 02:18:00,VALID,916.589,VALID,0,VALID,97.2523,VALID,0,VALID,19.4852,VALID,39,VALID,0.0602679,
2007-03-26, 02:19:00,VALID,916.562,VALID,0,VALID,96.4868,VALID,-0.0169808,VALID,19.3946,VALID,39,VALID,0.673874,
2007-03-26, 02:20:00,VALID,916.543,VALID,0,VALID,96.1244,VALID,-0.0169808,VALID,19.2127,VALID,39,VALID,0.787388,
2007-03-26, 02:21:00,VALID,916.504,VALID,0,VALID,97.354,VALID,-0.0169808,VALID,19.148,VALID,39,VALID,0.771949,
2007-03-26, 02:22:00,VALID,916.48,VALID,0,VALID,98.2518,VALID,-0.0169808,VALID,19.1899,VALID,39,VALID,0.585069,
2007-03-26, 02:23:00,VALID,916.459,VALID,0,VALID,98.6256,VALID,-0.0169808,VALID,19.2421,VALID,39,VALID,0.797783,
2007-03-26, 02:24:00,VALID,916.44,VALID,0,VALID,97.9377,VALID,-0.0339617,VALID,19.1779,VALID,39,VALID,0.821584,
2007-03-26, 02:25:00,VALID,916.434,VALID,0,VALID,98.2009,VALID,-0.0509425,VALID,19.1121,VALID,39,VALID,0.835029,
2007-03-26, 02:26:00,VALID,916.408,VALID,0,VALID,98.3281,VALID,-0.0339617,VALID,19.0899,VALID,39,VALID,0.857777,
2007-03-26, 02:27:00,VALID,916.41,VALID,0,VALID,97.9809,VALID,-0.0679233,VALID,18.9534,VALID,34,VALID,0.959695,
2007-03-26, 02:28:00,VALID,916.4,VALID,0,VALID,98.9397,VALID,-0.0509425,VALID,18.9891,VALID,27,VALID,0.959135,
2007-03-26, 02:29:00,VALID,916.393,VALID,0,VALID,99.4967,VALID,-0.0509425,VALID,19.0634,VALID,25,VALID,0.662109,
2007-03-26, 02:30:00,VALID,916.361,VALID,0,VALID,99.3556,VALID,-0.0339617,VALID,19.1121,VALID,25,VALID,0.614702,
2007-03-26, 02:31:00,VALID,916.339,VALID,0,VALID,99.3517,VALID,-0.0509425,VALID,19.1645,VALID,25,VALID,0.584695,
2007-03-26, 02:32:00,VALID,916.331,VALID,0,VALID,99.2246,VALID,-0.0509425,VALID,19.1835,VALID,25,VALID,0.402248,
2007-03-26, 02:33:00,VALID,916.322,VALID,0,VALID,99.0491,VALID,-0.0679233,VALID,19.1934,VALID,25,VALID,0.0997456,
2007-03-26, 02:34:00,VALID,916.295,VALID,0,VALID,98.8469,VALID,-0.0509425,VALID,19.1775,VALID,25,VALID,0,
2007-03-26, 02:35:00,VALID,916.285,VALID,0,VALID,98.9423,VALID,-0.0679233,VALID,19.1839,VALID,25,VALID,0.177641,
2007-03-26, 02:36:00,VALID,916.263,VALID,0,VALID,98.9626,VALID,-0.0679233,VALID,19.2097,VALID,25,VALID,0.110795,
2007-03-26, 02:37:00,VALID,916.259,VALID,0,VALID,98.4998,VALID,-0.0509425,VALID,19.2004,VALID,25,VALID,0.210938,
2007-03-26, 02:38:00,VALID,916.248,VALID,0,VALID,98.5265,VALID,-0.0339617,VALID,19.1642,VALID,25,VALID,0.376758,
2007-03-26, 02:39:00,VALID,916.233,VALID,0,VALID,99.2513,VALID,-0.0509425,VALID,19.2583,VALID,24,VALID,0.749273,
2007-03-26, 02:40:00,VALID,916.232,VALID,0,VALID,99.2513,VALID,-0.0679233,VALID,19.2843,VALID,8,VALID,0.590588,
2007-03-26, 02:41:00,VALID,916.237,VALID,0,VALID,99.3161,VALID,-0.0509425,VALID,19.314,VALID,1,VALID,0.745898,
2007-03-26, 02:42:00,VALID,916.238,VALID,0,VALID,99.4916,VALID,-0.0509425,VALID,19.3427,VALID,9,VALID,0.803757,
2007-03-26, 02:43:00,VALID,916.229,VALID,0,VALID,99.6137,VALID,-0.0169808,VALID,19.3716,VALID,6,VALID,0.97017,
2007-03-26, 02:44:00,VALID,916.222,VALID,0,VALID,99.4585,VALID,0,VALID,19.3609,VALID,16,VALID,0.652253,
2007-03-26, 02:45:00,VALID,916.228,VALID,0,VALID,99.278,VALID,0,VALID,19.3285,VALID,13,VALID,0.643415,
2007-03-26, 02:46:00,VALID,916.228,VALID,0,VALID,99.133,VALID,0,VALID,19.3065,VALID,14,VALID,0.291016,
2007-03-26, 02:47:00,VALID,916.227,VALID,0,VALID,99.325,VALID,0,VALID,19.2808,VALID,354,VALID,0.620313,
2007-03-26, 02:48:00,VALID,916.237,VALID,0,VALID,99.7765,VALID,0,VALID,19.3354,VALID,360,VALID,0.675868,
2007-03-26, 02:49:00,VALID,916.21,VALID,0,VALID,99.6849,VALID,0,VALID,19.3354,VALID,4,VALID,0.568824,
2007-03-26, 02:50:00,VALID,916.202,VALID,0,VALID,99.7421,VALID,0,VALID,19.3225,VALID,9,VALID,0.793423,
2007-03-26, 02:51:00,VALID,916.18,VALID,0,VALID,99.826,VALID,-0.0339617,VALID,19.3317,VALID,15,VALID,0.917874,
2007-03-26, 02:52:00,VALID,916.163,VALID,0,VALID,99.5883,VALID,0,VALID,19.3028,VALID,23,VALID,0.867014,
2007-03-26, 02:53:00,VALID,916.153,VALID,0,VALID,99.6468,VALID,-0.0169808,VALID,19.2805,VALID,21,VALID,1.01944,
2007-03-26, 02:54:00,VALID,916.139,VALID,0,VALID,99.7205,VALID,-0.0339617,VALID,19.2738,VALID,18,VALID,0.866824,
2007-03-26, 02:55:00,VALID,916.147,VALID,0,VALID,99.6798,VALID,0,VALID,19.2643,VALID,26,VALID,0.890816,
2007-03-26, 02:56:00,VALID,916.152,VALID,0,VALID,99.5883,VALID,-0.0169808,VALID,19.2416,VALID,26,VALID,0.86849,
2007-03-26, 02:57:00,VALID,916.162,VALID,0,VALID,99.6277,VALID,-0.0339617,VALID,19.2284,VALID,26,VALID,0.828906,
2007-03-26, 02:58:00,VALID,916.155,VALID,0,VALID,99.8121,VALID,-0.0169808,VALID,19.2548,VALID,19,VALID,1.09357,
2007-03-26, 02:59:00,VALID,916.151,VALID,0,VALID,99.8769,VALID,0,VALID,19.2835,VALID,20,VALID,1.06233,
2007-03-26, 03:00:00,VALID,916.151,VALID,0,VALID,99.6086,VALID,0,VALID,19.2606,VALID,20,VALID,0.863095,
2007-03-26, 03:01:00,VALID,916.148,VALID,0,VALID,99.4484,VALID,0,VALID,19.2344,VALID,20,VALID,0.676153,
2007-03-26, 03:02:00,VALID,916.149,VALID,0,VALID,99.4433,VALID,0,VALID,19.2022,VALID,20,VALID,0.429324,
2007-03-26, 03:03:00,VALID,916.162,VALID,0,VALID,99.5539,VALID,-0.0169808,VALID,19.1892,VALID,20,VALID,0.329127,
2007-03-26, 03:04:00,VALID,916.164,VALID,0,VALID,99.8731,VALID,0,VALID,19.2179,VALID,17,VALID,0.451087,
2007-03-26, 03:05:00,VALID,916.154,VALID,0,VALID,99.9667,VALID,-0.0339617,VALID,19.2346,VALID,17,VALID,0.252404,
2007-03-26, 03:06:00,VALID,916.125,VALID,0,VALID,99.7978,VALID,-0.0339617,VALID,19.2187,VALID,17,VALID,0.120821,
2007-03-26, 03:07:00,VALID,916.109,VALID,0,VALID,99.5412,VALID,0,VALID,19.1568,VALID,17,VALID,0.34375,
2007-03-26, 03:08:00,VALID,916.105,VALID,0,VALID,99.3288,VALID,-0.0169808,VALID,19.0984,VALID,4,VALID,0.582711,
2007-03-26, 03:09:00,VALID,916.09,VALID,0,VALID,99.7864,VALID,0,VALID,19.0917,VALID,357,VALID,0.640625,
2007-03-26, 03:10:00,VALID,916.091,VALID,0,VALID,100,VALID,0.0339617,VALID,19.1401,VALID,356,VALID,0.640625,
2007-03-26, 03:11:00,VALID,916.103,VALID,0,VALID,100,VALID,0.0339617,VALID,19.1303,VALID,356,VALID,0.231534,
2007-03-26, 03:12:00,VALID,916.104,VALID,0,VALID,100,VALID,-0.0169808,VALID,19.1079,VALID,356,VALID,0.158296,
2007-03-26, 03:13:00,VALID,916.088,VALID,0,VALID,100,VALID,0.0169808,VALID,19.0822,VALID,356,VALID,0.115371,
2007-03-26, 03:14:00,VALID,916.074,VALID,0,VALID,99.9397,VALID,-0.0169808,VALID,19.0532,VALID,356,VALID,0,
2007-03-26, 03:15:00,VALID,916.063,VALID,0,VALID,99.8904,VALID,0.0169808,VALID,19.0008,VALID,356,VALID,0,
2007-03-26, 03:16:00,VALID,916.049,VALID,0,VALID,100,VALID,-0.0169808,VALID,19.0101,VALID,356,VALID,0,
2007-03-26, 03:17:00,VALID,916.056,VALID,0,VALID,99.9901,VALID,0,VALID,18.9939,VALID,356,VALID,0,
2007-03-26, 03:18:00,VALID,916.043,VALID,0,VALID,100,VALID,0,VALID,18.9844,VALID,356,VALID,0,
2007-03-26, 03:19:00,VALID,916.045,VALID,0,VALID,100,VALID,0,VALID,19.014,VALID,356,VALID,0,
2007-03-26, 03:20:00,VALID,916.032,VALID,0,VALID,100,VALID,-0.0169808,VALID,19.0595,VALID,356,VALID,0,
2007-03-26, 03:21:00,VALID,916.036,VALID,0,VALID,100,VALID,0,VALID,19.0789,VALID,356,VALID,0.0671503,
2007-03-26, 03:22:00,VALID,916.044,VALID,0,VALID,100,VALID,0.0169808,VALID,19.0787,VALID,356,VALID,0,
2007-03-26, 03:23:00,VALID,916.061,VALID,0,VALID,100,VALID,0,VALID,19.0852,VALID,356,VALID,0,
2007-03-26, 03:24:00,VALID,916.088,VALID,0,VALID,100,VALID,0,VALID,19.0914,VALID,356,VALID,0.0338542,
2007-03-26, 03:25:00,VALID,916.111,VALID,0,VALID,100,VALID,-0.0169808,VALID,19.1144,VALID,356,VALID,0.338914,
2007-03-26, 03:26:00,VALID,916.122,VALID,0,VALID,100,VALID,-0.0169808,VALID,19.1271,VALID,356,VALID,0.193859,
2007-03-26, 03:27:00,VALID,916.141,VALID,0,VALID,100,VALID,-0.0169808,VALID,19.1241,VALID,356,VALID,0.259301,
2007-03-26, 03:28:00,VALID,916.159,VALID,0,VALID,100,VALID,-0.0339617,VALID,19.1248,VALID,356,VALID,0.350836,
2007-03-26, 03:29:00,VALID,916.171,VALID,0,VALID,100,VALID,-0.0849042,VALID,19.1383,VALID,356,VALID,0.21131,
2007-03-26, 03:30:00,VALID,916.169,VALID,0,VALID,100,VALID,-0.135847,VALID,19.152,VALID,356,VALID,0.0474201,
2007-03-26, 03:31:00,VALID,916.19,VALID,0,VALID,100,VALID,-0.101885,VALID,19.1515,VALID,356,VALID,0,
2007-03-26, 03:32:00,VALID,916.198,VALID,0,VALID,100,VALID,-0.101885,VALID,19.1453,VALID,356,VALID,0,
2007-03-26, 03:33:00,VALID,916.204,VALID,0,VALID,100,VALID,-0.135847,VALID,19.1323,VALID,356,VALID,0,
2007-03-26, 03:34:00,VALID,916.223,VALID,0,VALID,100,VALID,-0.0849042,VALID,19.1193,VALID,356,VALID,0,
2007-03-26, 03:35:00,VALID,916.251,VALID,0,VALID,100,VALID,-0.118866,VALID,19.1063,VALID,356,VALID,0,
2007-03-26, 03:36:00,VALID,916.273,VALID,0,VALID,100,VALID,-0.0849042,VALID,19.1126,VALID,356,VALID,0,
2007-03-26, 03:37:00,VALID,916.268,VALID,0,VALID,100,VALID,-0.118866,VALID,19.1223,VALID,356,VALID,0,
2007-03-26, 03:38:00,VALID,916.272,VALID,0,VALID,100,VALID,-0.118866,VALID,19.1353,VALID,356,VALID,0,